Flag for U.S.A. Weather past 2 weeks in Anchorage, Alaska, U.S.A.

Now
56 °F

Light rain. Mostly cloudy.


Feels Like: 54 °F
Forecast: 53 / 57 °F
Wind: 7 mph from Southwest

Location: Lake Hood Seaplane

Current Time: Jul 25, 2014 at 1:24:09 AM

Latest Report: Jul 25, 2014 at 12:53 AM


Visibility: 8 mi

Pressure: 29.82 "Hg

Humidity: 90%

Dew point: 53 °F

Location of AnchorageLocation

Historic Weather in Anchorage — Graph

°F

Anchorage temperature yesterday

Maximum temperature yesterday: 67 °F (at 12:53 PM)
Minimum temperature yesterday: 56 °F (at 10:53 PM)
Average temperature yesterday: 60 °F

Past Weeks' High & Low Weather Summary

 TemperatureHumidityPressure
High71 °F (Jul 21, 6:53 PM)94% (Jul 10, 2:02 PM)30.34 "Hg (Jul 10, 2:02 PM)
Low52 °F (Jul 15, 3:53 AM)31% (Jul 21, 6:53 PM)29.58 "Hg (Jul 19, 7:53 PM)
Average60 °F67%29.93 "Hg
* Reported Jul 9 11:53 PM — Jul 24 11:53 PM, Anchorage, Weather by CustomWeather, © 2014

Note: Actual official high and low records may vary slightly from our data, if they occured in-between our weather recording intervals... More about our weather records

Advertising

Anchorage weather history for previous 24 hours

 ConditionsComfort  
Time TempWeatherWind HumidityBarometerVisibility
11:53 PM
Jul 24
57 °FLight rain. Fog.5 mph87%29.82 "Hg5 mi
10:53 PM56 °FRain. Fog.6 mph90%29.82 "Hg5 mi
9:53 PM57 °FRain. Fog.5 mph90%29.81 "Hg3 mi
8:53 PM57 °FLight rain. Fog.5 mph87%29.81 "Hg5 mi
7:56 PM57 °FRain. Fog.No wind88%29.81 "Hg1 mi
6:53 PM59 °FLight rain. Overcast.6 mph84%29.81 "Hg8 mi
5:53 PM60 °FLight rain. Mostly cloudy.7 mph78%29.81 "Hg10 mi
4:53 PM61 °FOvercast.10 mph70%29.81 "Hg10 mi
3:53 PM61 °FOvercast.12 mph72%29.81 "Hg10 mi
2:53 PM62 °FOvercast.12 mph73%29.82 "Hg10 mi
1:53 PM63 °FPassing clouds.16 mph70%29.81 "Hg10 mi
12:53 PM67 °FPartly sunny.7 mph45%29.81 "Hg10 mi
11:53 AM66 °FScattered clouds.10 mph47%29.82 "Hg10 mi
10:53 AM65 °FOvercast.9 mph51%29.83 "Hg10 mi
9:53 AM63 °FPassing clouds.6 mph60%29.83 "Hg10 mi
8:53 AM60 °FOvercast.No wind69%29.84 "Hg10 mi
7:53 AM59 °FOvercast.No wind69%29.84 "Hg10 mi
6:53 AM58 °FOvercast.3 mph70%29.85 "Hg10 mi
5:53 AM58 °FMostly cloudy.8 mph70%29.84 "Hg10 mi
4:53 AM58 °FOvercast.8 mph70%29.84 "Hg10 mi
3:53 AM58 °FMostly cloudy.13 mph72%29.85 "Hg10 mi
2:53 AM58 °FMostly cloudy.14 mph70%29.85 "Hg10 mi
1:53 AM59 °FMostly cloudy.12 mph64%29.85 "Hg10 mi
Weather by CustomWeather, © 2014

See weather overviewHow to use our weather pages